| time (UTC) | temp F | wind direction | speed MPH | gust MPH | rain 1hr in | rain 24hr in | rain mn in | humidity % | barometer mb |
| 20260906053547 | 56 | 187 | 7.0 | 9.0 | 0.00 | 0.00 | 0.00 | 74 | 1026.5 |
| 20260906053043 | 56 | 204 | 5.0 | 8.0 | 0.00 | 0.00 | 0.00 | 74 | 1026.5 |
| 20260906052546 | 56 | 190 | 7.0 | 9.0 | 0.00 | 0.00 | 0.00 | 74 | 1026.4 |
| 20260906052043 | 56 | 182 | 5.0 | 9.0 | 0.00 | 0.00 | 0.00 | 75 | 1026.3 |
| 20260906051546 | 56 | 232 | 6.0 | 9.0 | 0.00 | 0.00 | 0.00 | 75 | 1026.3 |
| 20260906051049 | 56 | 199 | 6.0 | 10.0 | 0.00 | 0.00 | 0.00 | 75 | 1026.3 |
| 20260906050544 | 56 | 208 | 8.0 | 11.0 | 0.00 | 0.00 | 0.00 | 76 | 1026.3 |
| 20260906050046 | 55 | 189 | 5.0 | 8.0 | 0.00 | 0.00 | 0.00 | 76 | 1026.3 |
| 20260906045543 | 55 | 191 | 3.0 | 7.0 | 0.00 | 0.00 | 0.00 | 76 | 1026.2 |
| 20260906045043 | 55 | 185 | 3.0 | 6.0 | 0.00 | 0.00 | 0.00 | 76 | 1026.2 |
| 20260906044549 | 55 | 195 | 1.0 | 7.0 | 0.00 | 0.00 | 0.00 | 76 | 1026.2 |
| 20260906044046 | 56 | 177 | 5.0 | 9.0 | 0.00 | 0.00 | 0.00 | 76 | 1026.2 |
| 20260906043544 | 55 | 216 | 4.0 | 8.0 | 0.00 | 0.00 | 0.00 | 76 | 1026.2 |
| 20260906043043 | 56 | 144 | 3.0 | 8.0 | 0.00 | 0.00 | 0.00 | 76 | 1026.2 |
| 20260906042543 | 56 | 206 | 7.0 | 9.0 | 0.00 | 0.00 | 0.00 | 76 | 1026.2 |
| 20260906042046 | 56 | 209 | 4.0 | 8.0 | 0.00 | 0.00 | 0.00 | 75 | 1026.1 |
| 20260906041549 | 56 | 213 | 1.0 | 7.0 | 0.00 | 0.00 | 0.00 | 75 | 1026.1 |
| 20260906041046 | 56 | 200 | 3.0 | 7.0 | 0.00 | 0.00 | 0.00 | 75 | 1026.1 |
| 20260906040544 | 56 | 231 | 5.0 | 9.0 | 0.00 | 0.00 | 0.00 | 75 | 1026.0 |
| 20260906040049 | 56 | 190 | 5.0 | 8.0 | 0.00 | 0.00 | 0.00 | 75 | 1026.0 |
| 20260906035546 | 56 | 171 | 6.0 | 9.0 | 0.00 | 0.00 | 0.00 | 75 | 1025.9 |
| 20260906035043 | 56 | 218 | 6.0 | 8.0 | 0.00 | 0.01 | 0.00 | 74 | 1025.9 |
| 20260906034543 | 56 | 204 | 5.0 | 10.0 | 0.00 | 0.02 | 0.00 | 74 | 1025.8 |
| 20260906034043 | 56 | 205 | 6.0 | 11.0 | 0.00 | 0.02 | 0.00 | 74 | 1025.8 |
| 20260906033547 | 57 | 226 | 5.0 | 9.0 | 0.00 | 0.03 | 0.00 | 74 | 1025.8 |
| 20260906033046 | 57 | 214 | 7.0 | 10.0 | 0.00 | 0.03 | 0.00 | 74 | 1025.8 |
| 20260906032543 | 57 | 221 | 3.0 | 11.0 | 0.00 | 0.05 | 0.00 | 73 | 1025.7 |
| 20260906032043 | 57 | 230 | 7.0 | 12.0 | 0.00 | 0.07 | 0.00 | 73 | 1025.8 |
| 20260906031543 | 57 | 208 | 4.0 | 11.0 | 0.00 | 0.07 | 0.00 | 73 | 1025.7 |
| 20260906031043 | 57 | 204 | 9.0 | 11.0 | 0.00 | 0.07 | 0.00 | 73 | 1025.6 |
| 20260906030547 | 57 | 197 | 8.0 | 10.0 | 0.00 | 0.07 | 0.00 | 73 | 1025.6 |
| 20260906030043 | 57 | 170 | 5.0 | 10.0 | 0.00 | 0.08 | 0.00 | 73 | 1025.7 |
| 20260906025546 | 57 | 242 | 3.0 | 8.0 | 0.00 | 0.08 | 0.00 | 73 | 1025.6 |
| 20260906025046 | 57 | 216 | 4.0 | 8.0 | 0.00 | 0.08 | 0.00 | 72 | 1025.5 |
| 20260906024543 | 57 | 213 | 8.0 | 8.0 | 0.00 | 0.08 | 0.00 | 72 | 1025.4 |
| 20260906024043 | 58 | 166 | 5.0 | 7.0 | 0.00 | 0.08 | 0.00 | 72 | 1025.5 |
| 20260906023547 | 58 | 216 | 3.0 | 9.0 | 0.00 | 0.08 | 0.00 | 72 | 1025.5 |
| 20260906023046 | 58 | 166 | 5.0 | 9.0 | 0.00 | 0.08 | 0.00 | 72 | 1025.5 |
| 20260906022543 | 58 | 203 | 5.0 | 9.0 | 0.00 | 0.08 | 0.00 | 73 | 1025.5 |
| 20260906022043 | 58 | 182 | 7.0 | 9.0 | 0.00 | 0.08 | 0.00 | 73 | 1025.5 |
| 20260906021546 | 58 | 194 | 5.0 | 10.0 | 0.00 | 0.08 | 0.00 | 73 | 1025.4 |
| 20260906021049 | 58 | 203 | 5.0 | 7.0 | 0.00 | 0.08 | 0.00 | 73 | 1025.4 |
| 20260906020547 | 58 | 222 | 6.0 | 7.0 | 0.00 | 0.08 | 0.00 | 73 | 1025.4 |
| 20260906020046 | 58 | 212 | 5.0 | 6.0 | 0.00 | 0.08 | 0.00 | 73 | 1025.3 |
| 20260906015552 | 58 | 243 | 4.0 | 7.0 | 0.00 | 0.08 | 0.00 | 73 | 1025.4 |
| 20260906015043 | 58 | 199 | 4.0 | 7.0 | 0.00 | 0.08 | 0.00 | 72 | 1025.3 |
| 20260906014546 | 58 | 212 | 5.0 | 7.0 | 0.00 | 0.08 | 0.00 | 72 | 1025.2 |
| 20260906014043 | 58 | 224 | 3.0 | 6.0 | 0.00 | 0.08 | 0.00 | 72 | 1025.2 |
| 20260906013544 | 58 | 210 | 3.0 | 7.0 | 0.00 | 0.08 | 0.00 | 72 | 1025.2 |
| 20260906013043 | 58 | 211 | 4.0 | 7.0 | 0.00 | 0.09 | 0.00 | 72 | 1025.2 |
| 20260906012543 | 58 | 212 | 4.0 | 7.0 | 0.00 | 0.09 | 0.00 | 72 | 1025.2 |
| 20260906012043 | 58 | 167 | 3.0 | 6.0 | 0.00 | 0.09 | 0.00 | 71 | 1025.3 |
| 20260906011543 | 58 | 193 | 3.0 | 5.0 | 0.00 | 0.09 | 0.00 | 71 | 1025.2 |
| 20260906011046 | 58 | 172 | 4.0 | 6.0 | 0.00 | 0.09 | 0.00 | 71 | 1025.2 |
| 20260906010544 | 58 | 201 | 4.0 | 7.0 | 0.00 | 0.09 | 0.00 | 71 | 1025.2 |
| 20260906010046 | 58 | 204 | 3.0 | 7.0 | 0.00 | 0.09 | 0.00 | 70 | 1025.3 |
| 20260906005546 | 58 | 218 | 5.0 | 7.0 | 0.00 | 0.09 | 0.00 | 70 | 1025.2 |
| 20260906005049 | 59 | 187 | 3.0 | 9.0 | 0.00 | 0.09 | 0.00 | 70 | 1025.2 |
| 20260906004543 | 59 | 224 | 3.0 | 9.0 | 0.00 | 0.09 | 0.00 | 69 | 1025.2 |
| 20260906004046 | 59 | 223 | 5.0 | 8.0 | 0.00 | 0.09 | 0.00 | 69 | 1025.2 |
| 20260906003553 | 59 | 207 | 5.0 | 9.0 | 0.00 | 0.09 | 0.00 | 69 | 1025.3 |
| 20260906003046 | 59 | 202 | 3.0 | 9.0 | 0.00 | 0.09 | 0.00 | 69 | 1025.3 |
| 20260906002546 | 59 | 205 | 3.0 | 10.0 | 0.00 | 0.09 | 0.00 | 68 | 1025.2 |
| 20260906002052 | 59 | 135 | 4.0 | 8.0 | 0.00 | 0.09 | 0.00 | 68 | 1025.2 |
| 20260906001546 | 59 | 158 | 3.0 | 9.0 | 0.00 | 0.09 | 0.00 | 68 | 1025.1 |
| 20260906001043 | 59 | 179 | 8.0 | 9.0 | 0.00 | 0.09 | 0.00 | 67 | 1025.1 |
| 20260906000544 | 59 | 212 | 8.0 | 11.0 | 0.00 | 0.09 | 0.00 | 67 | 1025.0 |
| 20260906000043 | 60 | 195 | 6.0 | 10.0 | 0.00 | 0.09 | 0.00 | 67 | 1024.9 |
| 20260905235543 | 60 | 183 | 2.0 | 8.0 | 0.00 | 0.09 | 0.00 | 67 | 1024.9 |
| 20260905235052 | 60 | 179 | 4.0 | 8.0 | 0.00 | 0.09 | 0.00 | 67 | 1024.9 |
| 20260905234546 | 60 | 234 | 4.0 | 11.0 | 0.00 | 0.09 | 0.00 | 67 | 1024.8 |
| 20260905234043 | 60 | 212 | 7.0 | 10.0 | 0.00 | 0.09 | 0.00 | 66 | 1024.7 |
| 20260905233544 | 60 | 243 | 9.0 | 11.0 | 0.00 | 0.09 | 0.00 | 66 | 1024.7 |
| 20260905233043 | 60 | 214 | 7.0 | 10.0 | 0.00 | 0.09 | 0.00 | 65 | 1024.8 |
| 20260905232543 | 60 | 241 | 6.0 | 8.0 | 0.00 | 0.09 | 0.00 | 65 | 1024.8 |
| 20260905232043 | 60 | 201 | 6.0 | 9.0 | 0.00 | 0.09 | 0.00 | 65 | 1024.7 |
| 20260905231546 | 60 | 223 | 3.0 | 12.0 | 0.00 | 0.09 | 0.00 | 64 | 1024.7 |
| 20260905231049 | 61 | 217 | 4.0 | 13.0 | 0.00 | 0.09 | 0.00 | 64 | 1024.6 |
| 20260905230547 | 61 | 210 | 8.0 | 10.0 | 0.00 | 0.09 | 0.00 | 64 | 1024.6 |
| 20260905230043 | 61 | 191 | 8.0 | 12.0 | 0.00 | 0.09 | 0.00 | 63 | 1024.7 |
| 20260905225546 | 61 | 208 | 5.0 | 9.0 | 0.00 | 0.09 | 0.00 | 63 | 1024.7 |
| 20260905225043 | 61 | 178 | 8.0 | 9.0 | 0.00 | 0.09 | 0.00 | 63 | 1024.6 |
| 20260905224552 | 61 | 191 | 7.0 | 9.0 | 0.00 | 0.09 | 0.00 | 63 | 1024.7 |
| 20260905224043 | 61 | 231 | 7.0 | 8.0 | 0.00 | 0.09 | 0.00 | 63 | 1024.5 |
| 20260905223544 | 61 | 189 | 4.0 | 8.0 | 0.00 | 0.09 | 0.00 | 62 | 1024.6 |
| 20260905223043 | 61 | 211 | 3.0 | 8.0 | 0.00 | 0.09 | 0.00 | 62 | 1024.6 |
| 20260905222552 | 61 | 183 | 2.0 | 8.0 | 0.00 | 0.09 | 0.00 | 61 | 1024.5 |
| 20260905222043 | 61 | 183 | 7.0 | 7.0 | 0.00 | 0.09 | 0.00 | 61 | 1024.5 |
| 20260905221546 | 62 | 175 | 4.0 | 9.0 | 0.00 | 0.09 | 0.00 | 60 | 1024.4 |
| 20260905221043 | 62 | 203 | 7.0 | 10.0 | 0.00 | 0.09 | 0.00 | 59 | 1024.4 |
| 20260905220544 | 62 | 216 | 8.0 | 12.0 | 0.00 | 0.09 | 0.00 | 59 | 1024.5 |
| 20260905220046 | 62 | 200 | 5.0 | 10.0 | 0.00 | 0.09 | 0.00 | 59 | 1024.4 |
| 20260905215543 | 62 | 236 | 5.0 | 9.0 | 0.00 | 0.09 | 0.00 | 59 | 1024.4 |
| 20260905215043 | 63 | 174 | 5.0 | 13.0 | 0.00 | 0.09 | 0.00 | 58 | 1024.3 |
| 20260905214549 | 63 | 223 | 6.0 | 14.0 | 0.00 | 0.09 | 0.00 | 58 | 1024.2 |
| 20260905214043 | 63 | 195 | 13.0 | 16.0 | 0.00 | 0.09 | 0.00 | 58 | 1024.2 |
| 20260905213547 | 63 | 199 | 8.0 | 16.0 | 0.00 | 0.09 | 0.00 | 57 | 1024.2 |
| 20260905213046 | 63 | 193 | 10.0 | 14.0 | 0.00 | 0.09 | 0.00 | 57 | 1024.1 |
| 20260905212546 | 63 | 187 | 9.0 | 12.0 | 0.00 | 0.09 | 0.00 | 57 | 1024.1 |
| 20260905212043 | 63 | 204 | 12.0 | 14.0 | 0.00 | 0.09 | 0.00 | 57 | 1024.0 |
| 20260905211543 | 63 | 183 | 4.0 | 13.0 | 0.00 | 0.09 | 0.00 | 57 | 1024.0 |
| 20260905211049 | 63 | 198 | 6.0 | 13.0 | 0.00 | 0.09 | 0.00 | 57 | 1024.0 |
| 20260905210553 | 63 | 206 | 7.0 | 13.0 | 0.00 | 0.09 | 0.00 | 56 | 1024.0 |
| 20260905210043 | 63 | 218 | 6.0 | 14.0 | 0.00 | 0.09 | 0.00 | 56 | 1023.9 |
| 20260905205549 | 63 | 203 | 11.0 | 12.0 | 0.00 | 0.09 | 0.00 | 56 | 1023.9 |
| 20260905205049 | 63 | 214 | 4.0 | 16.0 | 0.00 | 0.09 | 0.00 | 56 | 1023.8 |
| 20260905204546 | 63 | 208 | 9.0 | 15.0 | 0.00 | 0.09 | 0.00 | 56 | 1023.7 |
| 20260905204046 | 63 | 230 | 9.0 | 14.0 | 0.00 | 0.09 | 0.00 | 55 | 1023.7 |
| 20260905203544 | 63 | 143 | 6.0 | 11.0 | 0.00 | 0.09 | 0.00 | 55 | 1023.7 |
| 20260905203043 | 63 | 170 | 6.0 | 14.0 | 0.00 | 0.09 | 0.00 | 55 | 1023.5 |
| 20260905202546 | 63 | 235 | 13.0 | 14.0 | 0.00 | 0.09 | 0.00 | 55 | 1023.4 |
| 20260905202049 | 64 | 172 | 9.0 | 15.0 | 0.00 | 0.09 | 0.00 | 55 | 1023.4 |
| 20260905201543 | 64 | 185 | 8.0 | 15.0 | 0.00 | 0.09 | 0.00 | 55 | 1023.3 |
| 20260905201046 | 64 | 212 | 7.0 | 15.0 | 0.00 | 0.09 | 0.00 | 55 | 1023.3 |
| 20260905200544 | 64 | 196 | 4.0 | 16.0 | 0.00 | 0.09 | 0.00 | 55 | 1023.2 |
| 20260905200046 | 64 | 198 | 9.0 | 13.0 | 0.00 | 0.09 | 0.00 | 55 | 1023.2 |
| 20260905195543 | 64 | 204 | 9.0 | 14.0 | 0.00 | 0.09 | 0.00 | 55 | 1023.0 |
| 20260905195043 | 64 | 225 | 13.0 | 13.0 | 0.00 | 0.09 | 0.00 | 55 | 1023.0 |
| 20260905194552 | 64 | 203 | 9.0 | 15.0 | 0.00 | 0.09 | 0.00 | 55 | 1022.9 |
| 20260905194046 | 64 | 222 | 10.0 | 14.0 | 0.00 | 0.09 | 0.00 | 55 | 1022.8 |
| 20260905193547 | 64 | 192 | 9.0 | 15.0 | 0.00 | 0.09 | 0.00 | 54 | 1022.8 |
| 20260905193049 | 65 | 212 | 9.0 | 15.0 | 0.00 | 0.09 | 0.00 | 55 | 1022.7 |
| 20260905192543 | 64 | 210 | 8.0 | 14.0 | 0.00 | 0.09 | 0.00 | 55 | 1022.6 |
| 20260905192043 | 64 | 183 | 11.0 | 14.0 | 0.00 | 0.09 | 0.00 | 55 | 1022.7 |
| 20260905191546 | 65 | 195 | 10.0 | 13.0 | 0.00 | 0.09 | 0.00 | 55 | 1022.6 |
| 20260905191043 | 65 | 182 | 7.0 | 13.0 | 0.00 | 0.09 | 0.00 | 55 | 1022.7 |
| 20260905190544 | 65 | 182 | 10.0 | 13.0 | 0.00 | 0.09 | 0.00 | 55 | 1022.6 |
| 20260905190043 | 65 | 191 | 10.0 | 13.0 | 0.00 | 0.09 | 0.00 | 55 | 1022.5 |
| 20260905185543 | 65 | 167 | 6.0 | 13.0 | 0.00 | 0.09 | 0.00 | 54 | 1022.5 |
| 20260905185043 | 65 | 196 | 9.0 | 9.0 | 0.00 | 0.09 | 0.00 | 55 | 1022.4 |
| 20260905184546 | 65 | 181 | 4.0 | 7.0 | 0.00 | 0.09 | 0.00 | 55 | 1022.3 |
| 20260905184043 | 65 | 168 | 3.0 | 8.0 | 0.00 | 0.09 | 0.00 | 55 | 1022.3 |
| 20260905183544 | 65 | 236 | 4.0 | 9.0 | 0.00 | 0.09 | 0.00 | 54 | 1022.2 |
| 20260905183043 | 66 | 189 | 4.0 | 9.0 | 0.00 | 0.09 | 0.00 | 54 | 1022.2 |
| 20260905182543 | 66 | 199 | 3.0 | 9.0 | 0.00 | 0.09 | 0.00 | 54 | 1022.2 |
| 20260905182049 | 66 | 203 | 6.0 | 9.0 | 0.00 | 0.09 | 0.00 | 53 | 1022.1 |
| 20260905181549 | 66 | 188 | 6.0 | 11.0 | 0.00 | 0.09 | 0.00 | 53 | 1022.0 |
| 20260905181043 | 66 | 206 | 10.0 | 10.0 | 0.00 | 0.09 | 0.00 | 53 | 1021.9 |
| 20260905180547 | 66 | 231 | 2.0 | 10.0 | 0.00 | 0.09 | 0.00 | 52 | 1021.8 |
| 20260905180052 | 66 | 233 | 8.0 | 8.0 | 0.00 | 0.09 | 0.00 | 52 | 1021.7 |
| 20260905175546 | 67 | 241 | 5.0 | 6.0 | 0.00 | 0.09 | 0.00 | 52 | 1021.6 |
| 20260905175046 | 67 | 202 | 5.0 | 9.0 | 0.00 | 0.09 | 0.00 | 52 | 1021.5 |
| 20260905174546 | 67 | 247 | 6.0 | 11.0 | 0.00 | 0.09 | 0.00 | 51 | 1021.4 |
| 20260905174043 | 67 | 240 | 6.0 | 11.0 | 0.00 | 0.09 | 0.00 | 50 | 1021.3 |
| 20260905173544 | 67 | 214 | 13.0 | 14.0 | 0.00 | 0.09 | 0.00 | 50 | 1021.2 |
| 20260905173043 | 67 | 181 | 7.0 | 11.0 | 0.00 | 0.09 | 0.00 | 50 | 1021.1 |
| 20260905172543 | 68 | 217 | 7.0 | 9.0 | 0.00 | 0.09 | 0.00 | 50 | 1021.1 |
| 20260905172046 | 68 | 239 | 4.0 | 16.0 | 0.00 | 0.09 | 0.00 | 49 | 1021.0 |
| 20260905171549 | 68 | 237 | 4.0 | 11.0 | 0.00 | 0.09 | 0.00 | 49 | 1020.9 |
| 20260905171043 | 68 | 190 | 2.0 | 10.0 | 0.00 | 0.09 | 0.00 | 49 | 1020.8 |
| 20260905170550 | 68 | 207 | 5.0 | 15.0 | 0.00 | 0.09 | 0.00 | 48 | 1020.7 |
| 20260905170043 | 69 | 262 | 4.0 | 12.0 | 0.00 | 0.09 | 0.00 | 48 | 1020.6 |
| 20260905165550 | 69 | 253 | 8.0 | 11.0 | 0.00 | 0.09 | 0.00 | 47 | 1020.5 |
| 20260905165046 | 69 | 264 | 6.0 | 15.0 | 0.00 | 0.09 | 0.00 | 47 | 1020.4 |
| 20260905164546 | 69 | 264 | 2.0 | 11.0 | 0.00 | 0.09 | 0.00 | 47 | 1020.3 |
| 20260905164044 | 70 | 219 | 9.0 | 14.0 | 0.00 | 0.09 | 0.00 | 47 | 1020.3 |
| 20260905163546 | 70 | 236 | 12.0 | 14.0 | 0.00 | 0.09 | 0.00 | 47 | 1020.2 |
| 20260905163052 | 70 | 225 | 8.0 | 14.0 | 0.00 | 0.09 | 0.00 | 47 | 1020.1 |
| 20260905162543 | 70 | 202 | 12.0 | 16.0 | 0.00 | 0.09 | 0.00 | 47 | 1020.0 |
| 20260905162043 | 70 | 216 | 6.0 | 15.0 | 0.00 | 0.09 | 0.00 | 47 | 1020.0 |
| 20260905161546 | 70 | 218 | 9.0 | 15.0 | 0.00 | 0.09 | 0.00 | 47 | 1019.9 |
| 20260905161044 | 70 | 310 | 8.0 | 10.0 | 0.00 | 0.09 | 0.00 | 47 | 1019.8 |
| 20260905160552 | 70 | 264 | 11.0 | 11.0 | 0.00 | 0.09 | 0.00 | 48 | 1019.8 |
| 20260905160046 | 70 | 282 | 9.0 | 19.0 | 0.00 | 0.09 | 0.00 | 47 | 1019.7 |
| 20260905155543 | 71 | 222 | 7.0 | 13.0 | 0.00 | 0.09 | 0.00 | 47 | 1019.6 |
| 20260905155043 | 71 | 242 | 7.0 | 14.0 | 0.00 | 0.09 | 0.00 | 46 | 1019.5 |
| 20260905154549 | 71 | 257 | 5.0 | 12.0 | 0.00 | 0.09 | 0.00 | 47 | 1019.6 |
| 20260905154047 | 71 | 256 | 7.0 | 17.0 | 0.00 | 0.09 | 0.00 | 46 | 1019.6 |
| 20260905153552 | 71 | 241 | 6.0 | 10.0 | 0.00 | 0.09 | 0.00 | 46 | 1019.5 |
| 20260905153043 | 71 | 161 | 4.0 | 12.0 | 0.00 | 0.09 | 0.00 | 46 | 1019.4 |
| 20260905152546 | 71 | 253 | 7.0 | 15.0 | 0.00 | 0.09 | 0.00 | 46 | 1019.5 |
| 20260905152043 | 71 | 203 | 4.0 | 13.0 | 0.00 | 0.09 | 0.00 | 47 | 1019.4 |
| 20260905151546 | 71 | 304 | 12.0 | 14.0 | 0.00 | 0.09 | 0.00 | 46 | 1019.3 |
| 20260905151044 | 71 | 216 | 6.0 | 14.0 | 0.00 | 0.09 | 0.00 | 46 | 1019.3 |
| 20260905150543 | 71 | 229 | 13.0 | 18.0 | 0.00 | 0.09 | 0.00 | 46 | 1019.4 |
| 20260905150046 | 71 | 185 | 15.0 | 21.0 | 0.00 | 0.09 | 0.00 | 45 | 1019.3 |
| 20260905145543 | 71 | 212 | 12.0 | 19.0 | 0.00 | 0.09 | 0.00 | 45 | 1019.3 |
| 20260905145043 | 71 | 202 | 11.0 | 24.0 | 0.00 | 0.09 | 0.00 | 45 | 1019.2 |
| 20260905144543 | 71 | 222 | 2.0 | 17.0 | 0.00 | 0.09 | 0.00 | 45 | 1019.2 |
| 20260905144044 | 71 | 194 | 12.0 | 22.0 | 0.00 | 0.09 | 0.00 | 44 | 1019.2 |
| 20260905143543 | 71 | 225 | 9.0 | 18.0 | 0.00 | 0.09 | 0.00 | 45 | 1019.2 |
| 20260905143043 | 71 | 261 | 4.0 | 17.0 | 0.00 | 0.09 | 0.00 | 45 | 1019.2 |
| 20260905142546 | 71 | 228 | 8.0 | 18.0 | 0.00 | 0.09 | 0.00 | 45 | 1019.2 |
| 20260905142046 | 71 | 282 | 6.0 | 18.0 | 0.00 | 0.09 | 0.00 | 45 | 1019.3 |
| 20260905141546 | 71 | 197 | 12.0 | 18.0 | 0.00 | 0.09 | 0.00 | 45 | 1019.2 |
| 20260905141044 | 71 | 251 | 8.0 | 16.0 | 0.00 | 0.09 | 0.00 | 45 | 1019.2 |
| 20260905140546 | 70 | 208 | 8.0 | 18.0 | 0.00 | 0.09 | 0.00 | 46 | 1019.2 |
| 20260905140043 | 70 | 224 | 11.0 | 17.0 | 0.00 | 0.09 | 0.00 | 45 | 1019.1 |
| 20260905135546 | 70 | 189 | 9.0 | 20.0 | 0.00 | 0.09 | 0.00 | 46 | 1019.2 |
| 20260905135046 | 70 | 199 | 12.0 | 19.0 | 0.00 | 0.09 | 0.00 | 47 | 1019.1 |
| 20260905134546 | 70 | 185 | 10.0 | 18.0 | 0.00 | 0.09 | 0.00 | 48 | 1019.1 |
| 20260905134047 | 70 | 191 | 16.0 | 17.0 | 0.00 | 0.09 | 0.00 | 47 | 1019.1 |
| 20260905133543 | 71 | 233 | 4.0 | 17.0 | 0.00 | 0.09 | 0.00 | 47 | 1019.2 |
| 20260905133043 | 71 | 193 | 9.0 | 17.0 | 0.00 | 0.09 | 0.00 | 47 | 1019.1 |
| 20260905132543 | 71 | 179 | 3.0 | 23.0 | 0.00 | 0.09 | 0.00 | 47 | 1019.1 |
| 20260905132043 | 71 | 156 | 4.0 | 15.0 | 0.00 | 0.09 | 0.00 | 47 | 1019.2 |
| 20260905131549 | 70 | 193 | 7.0 | 18.0 | 0.00 | 0.09 | 0.00 | 49 | 1019.1 |
| 20260905131044 | 69 | 210 | 17.0 | 19.0 | 0.00 | 0.09 | 0.00 | 49 | 1019.2 |
| 20260905130543 | 69 | 201 | 11.0 | 23.0 | 0.00 | 0.09 | 0.00 | 49 | 1019.1 |
| 20260905130043 | 69 | 186 | 12.0 | 20.0 | 0.00 | 0.09 | 0.00 | 49 | 1019.2 |
| 20260905125543 | 70 | 166 | 11.0 | 19.0 | 0.00 | 0.09 | 0.00 | 48 | 1019.1 |
| 20260905125046 | 70 | 209 | 10.0 | 13.0 | 0.00 | 0.09 | 0.00 | 49 | 1019.2 |
| 20260905124552 | 70 | 210 | 14.0 | 20.0 | 0.00 | 0.09 | 0.00 | 48 | 1019.2 |
| 20260905124047 | 69 | 217 | 5.0 | 16.0 | 0.00 | 0.09 | 0.00 | 49 | 1019.2 |
| 20260905123543 | 69 | 219 | 12.0 | 19.0 | 0.00 | 0.09 | 0.00 | 49 | 1019.3 |
| 20260905123043 | 68 | 187 | 10.0 | 22.0 | 0.00 | 0.09 | 0.00 | 49 | 1019.4 |
| 20260905122543 | 68 | 210 | 12.0 | 20.0 | 0.00 | 0.09 | 0.00 | 49 | 1019.4 |
| 20260905122046 | 69 | 239 | 7.0 | 21.0 | 0.00 | 0.09 | 0.00 | 48 | 1019.4 |
| 20260905121546 | 70 | 207 | 4.0 | 21.0 | 0.00 | 0.09 | 0.00 | 47 | 1019.4 |
| 20260905121047 | 70 | 199 | 17.0 | 22.0 | 0.00 | 0.09 | 0.00 | 47 | 1019.4 |
| 20260905120543 | 69 | 156 | 7.0 | 21.0 | 0.00 | 0.09 | 0.00 | 48 | 1019.4 |
| 20260905120049 | 68 | 195 | 11.0 | 17.0 | 0.00 | 0.09 | 0.00 | 52 | 1019.5 |
| 20260905115543 | 68 | 160 | 11.0 | 22.0 | 0.00 | 0.09 | 0.00 | 52 | 1019.5 |
| 20260905115044 | 68 | 220 | 15.0 | 20.0 | 0.00 | 0.09 | 0.00 | 52 | 1019.5 |
| 20260905114546 | 68 | 118 | 18.0 | 20.0 | 0.00 | 0.09 | 0.00 | 52 | 1019.5 |
| 20260905114046 | 69 | 206 | 14.0 | 20.0 | 0.00 | 0.09 | 0.00 | 51 | 1019.5 |
| 20260905113543 | 69 | 231 | 9.0 | 19.0 | 0.00 | 0.09 | 0.00 | 52 | 1019.5 |
| 20260905113046 | 68 | 216 | 18.0 | 22.0 | 0.00 | 0.09 | 0.00 | 51 | 1019.5 |
| 20260905112547 | 69 | 199 | 15.0 | 22.0 | 0.00 | 0.09 | 0.00 | 50 | 1019.5 |
| 20260905112043 | 69 | 108 | 4.0 | 16.0 | 0.00 | 0.09 | 0.00 | 51 | 1019.5 |
| 20260905111546 | 69 | 223 | 11.0 | 19.0 | 0.00 | 0.09 | 0.00 | 51 | 1019.4 |
| 20260905111043 | 69 | 111 | 7.0 | 24.0 | 0.00 | 0.09 | 0.00 | 50 | 1019.5 |
| 20260905110543 | 69 | 254 | 4.0 | 23.0 | 0.00 | 0.09 | 0.00 | 51 | 1019.5 |
| 20260905110046 | 69 | 141 | 8.0 | 15.0 | 0.00 | 0.09 | 0.00 | 52 | 1019.5 |
| 20260905105544 | 69 | 114 | 5.0 | 20.0 | 0.00 | 0.09 | 0.00 | 54 | 1019.4 |
| 20260905105043 | 68 | 191 | 15.0 | 21.0 | 0.00 | 0.09 | 0.00 | 52 | 1019.4 |
| 20260905104552 | 68 | 149 | 9.0 | 17.0 | 0.00 | 0.09 | 0.00 | 56 | 1019.4 |
| 20260905104043 | 68 | 112 | 9.0 | 14.0 | 0.00 | 0.09 | 0.00 | 59 | 1019.3 |
| 20260905103543 | 67 | 151 | 7.0 | 14.0 | 0.00 | 0.09 | 0.00 | 59 | 1019.5 |
| 20260905103043 | 66 | 124 | 4.0 | 16.0 | 0.00 | 0.09 | 0.00 | 60 | 1019.5 |
| 20260905102547 | 66 | 188 | 7.0 | 18.0 | 0.00 | 0.09 | 0.00 | 60 | 1019.5 |
| 20260905102043 | 66 | 162 | 11.0 | 16.0 | 0.00 | 0.09 | 0.00 | 60 | 1019.5 |
| 20260905101543 | 67 | 226 | 11.0 | 15.0 | 0.00 | 0.09 | 0.00 | 58 | 1019.5 |
| 20260905101043 | 67 | 291 | 4.0 | 16.0 | 0.00 | 0.09 | 0.00 | 59 | 1019.4 |
| 20260905100546 | 67 | 92 | 4.0 | 12.0 | 0.00 | 0.09 | 0.00 | 61 | 1019.4 |
| 20260905100046 | 66 | 220 | 3.0 | 15.0 | 0.00 | 0.09 | 0.00 | 62 | 1019.3 |
| 20260905095553 | 66 | 145 | 4.0 | 15.0 | 0.00 | 0.09 | 0.00 | 64 | 1019.4 |
| 20260905095043 | 66 | 188 | 9.0 | 18.0 | 0.00 | 0.09 | 0.00 | 64 | 1019.4 |
| 20260905094543 | 65 | 224 | 8.0 | 11.0 | 0.00 | 0.09 | 0.00 | 65 | 1019.4 |
| 20260905094043 | 65 | 162 | 7.0 | 13.0 | 0.00 | 0.09 | 0.00 | 66 | 1019.4 |
| 20260905093543 | 65 | 173 | 10.0 | 13.0 | 0.00 | 0.09 | 0.00 | 65 | 1019.4 |
| 20260905093043 | 65 | 175 | 10.0 | 16.0 | 0.00 | 0.09 | 0.00 | 65 | 1019.4 |
| 20260905092544 | 65 | 359 | 4.0 | 12.0 | 0.00 | 0.09 | 0.00 | 65 | 1019.4 |
| 20260905092046 | 65 | 148 | 9.0 | 14.0 | 0.00 | 0.09 | 0.00 | 66 | 1019.4 |
| 20260905091543 | 64 | 174 | 4.0 | 14.0 | 0.00 | 0.09 | 0.00 | 66 | 1019.6 |
| 20260905091043 | 64 | 213 | 7.0 | 14.0 | 0.00 | 0.09 | 0.00 | 68 | 1019.5 |
| 20260905090549 | 64 | 189 | 12.0 | 17.0 | 0.00 | 0.09 | 0.00 | 67 | 1019.5 |
| 20260905090043 | 64 | 162 | 7.0 | 16.0 | 0.00 | 0.09 | 0.00 | 68 | 1019.4 |
| 20260905085544 | 63 | 264 | 3.0 | 14.0 | 0.00 | 0.09 | 0.00 | 69 | 1019.4 |
| 20260905085046 | 64 | 180 | 8.0 | 15.0 | 0.00 | 0.09 | 0.00 | 69 | 1019.4 |
| 20260905084549 | 63 | 206 | 6.0 | 12.0 | 0.00 | 0.09 | 0.00 | 69 | 1019.4 |
| 20260905084043 | 63 | 251 | 3.0 | 11.0 | 0.00 | 0.09 | 0.00 | 70 | 1019.5 |
| 20260905083543 | 63 | 203 | 7.0 | 17.0 | 0.00 | 0.09 | 0.00 | 70 | 1019.5 |
| 20260905083043 | 63 | 182 | 5.0 | 13.0 | 0.00 | 0.09 | 0.00 | 71 | 1019.6 |
| 20260905082547 | 63 | 199 | 5.0 | 17.0 | 0.00 | 0.09 | 0.00 | 71 | 1019.5 |
| 20260905082052 | 63 | 197 | 11.0 | 15.0 | 0.00 | 0.09 | 0.00 | 71 | 1019.5 |
| 20260905081543 | 63 | 216 | 3.0 | 10.0 | 0.00 | 0.09 | 0.00 | 73 | 1019.5 |
| 20260905081046 | 63 | 162 | 7.0 | 10.0 | 0.00 | 0.09 | 0.00 | 74 | 1019.4 |
| 20260905080543 | 62 | 119 | 5.0 | 12.0 | 0.00 | 0.09 | 0.00 | 75 | 1019.4 |
| 20260905080043 | 62 | 208 | 8.0 | 14.0 | 0.00 | 0.09 | 0.00 | 75 | 1019.3 |
| 20260905075544 | 62 | 226 | 6.0 | 16.0 | 0.00 | 0.09 | 0.00 | 75 | 1019.2 |
| 20260905075043 | 62 | 166 | 12.0 | 13.0 | 0.00 | 0.09 | 0.00 | 77 | 1019.2 |
| 20260905074546 | 61 | 208 | 4.0 | 12.0 | 0.00 | 0.09 | 0.00 | 77 | 1019.2 |
| 20260905074049 | 61 | 162 | 3.0 | 15.0 | 0.00 | 0.09 | 0.00 | 77 | 1019.1 |
| 20260905073546 | 61 | 156 | 9.0 | 13.0 | 0.00 | 0.09 | 0.00 | 78 | 1019.0 |
| 20260905073046 | 60 | 158 | 7.0 | 14.0 | 0.00 | 0.09 | 0.00 | 78 | 1018.9 |
| 20260905072544 | 60 | 132 | 10.0 | 15.0 | 0.00 | 0.09 | 0.00 | 79 | 1018.8 |
| 20260905072046 | 60 | 124 | 3.0 | 14.0 | 0.00 | 0.09 | 0.00 | 79 | 1018.9 |
| 20260905071546 | 60 | 179 | 9.0 | 14.0 | 0.00 | 0.09 | 0.00 | 80 | 1018.8 |
| 20260905071043 | 60 | 176 | 2.0 | 16.0 | 0.00 | 0.09 | 0.00 | 80 | 1019.0 |
| 20260905070552 | 60 | 129 | 4.0 | 19.0 | 0.00 | 0.09 | 0.00 | 80 | 1019.0 |
| 20260905070052 | 60 | 160 | 10.0 | 13.0 | 0.00 | 0.09 | 0.00 | 82 | 1019.1 |
| 20260905065544 | 59 | 175 | 6.0 | 15.0 | 0.00 | 0.09 | 0.00 | 83 | 1019.1 |
| 20260905065043 | 59 | 129 | 5.0 | 18.0 | 0.00 | 0.09 | 0.00 | 84 | 1019.1 |
| 20260905064546 | 59 | 153 | 3.0 | 14.0 | 0.00 | 0.09 | 0.00 | 84 | 1019.1 |
| 20260905064043 | 59 | 160 | 6.0 | 16.0 | 0.00 | 0.09 | 0.00 | 85 | 1019.1 |
| 20260905063543 | 59 | 148 | 6.0 | 13.0 | 0.00 | 0.09 | 0.00 | 85 | 1019.1 |
| 20260905063046 | 59 | 195 | 6.0 | 15.0 | 0.00 | 0.09 | 0.00 | 85 | 1019.0 |
| 20260905062547 | 58 | 160 | 13.0 | 15.0 | 0.00 | 0.09 | 0.00 | 85 | 1018.9 |
| 20260905062049 | 58 | 143 | 6.0 | 16.0 | 0.00 | 0.09 | 0.00 | 84 | 1018.8 |
| 20260905061546 | 58 | 188 | 7.0 | 15.0 | 0.00 | 0.09 | 0.00 | 84 | 1018.8 |
| 20260905061043 | 58 | 166 | 11.0 | 17.0 | 0.00 | 0.09 | 0.00 | 85 | 1018.7 |
| 20260905060543 | 58 | 170 | 7.0 | 15.0 | 0.00 | 0.09 | 0.00 | 86 | 1018.6 |
| 20260905060046 | 58 | 153 | 9.0 | 15.0 | 0.00 | 0.09 | 0.00 | 86 | 1018.6 |
| 20260905055553 | 57 | 148 | 10.0 | 15.0 | 0.00 | 0.09 | 0.00 | 87 | 1018.6 |
| 20260905055049 | 57 | 183 | 7.0 | 12.0 | 0.00 | 0.09 | 0.00 | 88 | 1018.6 |
| 20260905054549 | 57 | 149 | 11.0 | 11.0 | 0.00 | 0.09 | 0.00 | 88 | 1018.6 |
| 20260905054043 | 57 | 153 | 7.0 | 9.0 | 0.00 | 0.09 | 0.00 | 88 | 1018.5 |